Regional Weather Roundup
Issued by NWS

Home | Current Version | Previous Version | Text Only | Print | Product List | Glossary Off
Versions: 1 2 3 4 5 6 7 8 9 10 11 12 13 14 15 16 17 18 19 20 21 22 23 24 25 26 27 28

000
ASUS45 KCYS 251610
RWRWY

WYOMING REGIONAL WEATHER ROUNDUP
NATIONAL WEATHER SERVICE CHEYENNE WY
1000 AM MDT SAT MAR 25 2017

NOTE:  "FAIR" INDICATES FEW OR NO CLOUDS BELOW 12,000 FEET
WITH NO SIGNIFICANT WEATHER AND/OR OBSTRUCTIONS TO VISIBILITY.

WYZ001-251700-
YELLOWSTONE NATIONAL PARK

CITY           SKY/WX    TMP DP  RH WIND       PRES   REMARKS
LK YELLOWSTONE   N/A     32  30  92 CALM      30.04S
W YELLOWSTONE  NOT AVBL

$$
WYZ002>013-054>058-071-098>099-251700-
NORTHERN WYOMING

CITY           SKY/WX    TMP DP  RH WIND       PRES   REMARKS
JACKSON        LGT RAIN  36  36 100 SW7       30.03F WCI  30
CODY           FAIR      46  32  58 N12       29.99R
GREYBULL       CLOUDY    44  35  70 CALM      29.94S
WORLAND        CLOUDY    43  38  82 SW5       29.94S
SHERIDAN       CLOUDY    50  34  54 NW7       29.99R
BUFFALO        CLOUDY    49  30  48 N14G22    29.99R
GILLETTE       FAIR      56  31  38 N9        29.95R
HULETT         FAIR      52  32  46 W7        29.95R
NEWCASTLE      FAIR      48  27  43 SE7G16    29.97R

$$
WYZ014>020-022>026-101>103-251700-
CENTRAL WYOMING

CITY           SKY/WX    TMP DP  RH WIND       PRES   REMARKS
BIG PINEY      LGT SNOW  34  33  96 CALM      30.04F FOG
PINEDALE       RAIN      34  34 100 N5        30.05S WCI  30
DUBOIS         CLOUDY    36  30  80 NW8       29.99F WCI  29
LANDER         PTSUNNY   47  32  56 SE5       29.96S
RIVERTON       FAIR      48  33  56 W6        29.97S
CASPER         FAIR      50  28  42 SW16G25   29.98S
DOUGLAS        FAIR      45  32  60 S6        29.97F

$$
WYZ021-027>030-104>119-251700-
SOUTHERN WYOMING

CITY           SKY/WX    TMP DP  RH WIND       PRES   REMARKS
EVANSTON       CLOUDY    39  28  64 CALM      30.01F
KEMMERER         N/A     34  28  80 CALM      30.03S
FORT BRIDGER   CLOUDY    37  32  81 CALM      30.04F
ROCK SPRINGS   FAIR      41  31  67 CALM      30.02S
DIXON            N/A     46  29  51 CALM      30.07F
RAWLINS        FAIR      47  23  38 S16       30.03F
SARATOGA       FAIR      43  23  45 S14       30.05F
LARAMIE        FAIR      46  21  37 SW17G23   30.02F
CHEYENNE       FAIR      50  27  40 S13       30.03F
TORRINGTON     FAIR      46  31  55 SE8       29.99S
PINE BLUFFS    FAIR      46  32  57 S14G25    30.04S

$$




USA.gov is the U.S. government's official web portal to all federal, state and local government web resources and services.